EHI
40 40 37 34 30 31 29 23 22 28 40 50 55 56 52 46 43 43 47 48 45 42 37 31 30 27 24 21 19 18 16 13 11 10 8 6 4 3 3 3 2 1 0
35 34 33 31 31 31 30 27 29 34 40 49 57 60 56 49 42 41 44 44 41 37 30 26 23 22 20 17 15 13 12 9 8 8 9 7 4 2 2 1 1 0 0
28 27 26 27 30 34 35 36 39 44 47 52 57 58 55 49 43 38 34 31 28 24 19 16 15 15 14 12 9 7 6 6 5 5 6 5 2 1 0 0 0 0 0
22 21 21 22 26 33 39 41 41 45 51 55 55 53 49 45 38 29 21 15 12 10 9 8 8 9 8 6 5 4 4 4 3 2 1 1 0 0 0 0 0 0 0
13 14 14 14 18 26 33 34 33 35 41 46 49 47 43 35 25 17 10 6 3 2 3 4 4 5 4 4 3 3 3 3 2 1 0 0 0 0 0 0 0 0 0
6 6 6 6 8 13 17 19 20 22 25 29 33 33 29 22 14 8 5 3 1 1 2 3 2 2 2 2 2 2 1 1 1 0 0 0 0 0 0 0 0 0 0
2 2 2 1 2 3 4 6 7 10 11 13 14 15 13 11 8 4 3 2 1 1 2 1 1 1 1 1 1 1 0 0 0 0 0 0 0 0 0 0 0 0 0
1 1 1 0 0 0 0 0 1 2 3 3 3 3 4 4 3 2 1 1 0 1 1 0 0 0 0 0 0 0 0 0 0 0 0 0 0 0 0 0 0 0 0
0 0 0 0 0 0 0 0 0 0 0 0 0 0 1 1 1 0 0 0 0 0 0 0 0 0 0 0 0 0 0 0 0 0 0 0 0 0 0 0 0 0 0
0 0 0 0 0 0 0 0 0 0 0 0 0 0 0 0 0 0 0 0 0 0 0 0 0 0 0 0 0 0 0 0 0 0 0 0 0 0 0 0 0 0 0
0 0 0 0 0 0 0 0 0 0 0 0 0 0 0 0 0 0 0 0 0 0 0 0 0 0 0 0 0 0 0 0 0 0 0 0 0 0 0 0 0 0 0
0 0 0 0 0 0 0 0 0 0 0 0 0 0 0 0 0 0 0 0 0 0 0 0 0 0 0 0 0 0 0 0 0 0 0 0 0 0 0 0 0 0 0
0 0 0 0 0 0 0 0 0 0 0 0 0 0 0 0 0 0 0 0 0 0 0 0 0 0 0 0 0 0 0 0 0 0 0 0 0 0 0 0 0 0 0
0 0 0 0 0 0 0 0 0 0 0 0 0 0 0 0 0 0 0 0 0 0 0 0 0 0 0 0 0 0 0 0 0 0 0 0 0 0 0 0 0 0 0
0 0 0 0 0 0 0 0 0 0 0 0 0 0 0 0 0 0 0 0 0 0 0 0 0 0 0 0 0 0 0 0 0 0 0 0 0 0 0 0 0 0 0
0 0 0 0 0 0 0 0 0 0 0 0 0 0 0 0 0 0 0 0 0 0 0 0 0 0 0 0 0 0 0 0 0 0 0 0 0 0 0 0 0 0 0
0 0 0 0 0 0 0 0 0 0 0 0 0 0 0 0 0 0 0 0 0 0 0 0 0 0 0 0 0 0 0 0 0 0 0 0 0 0 0 0 0 0 0
0 0 0 0 0 0 0 0 0 0 0 0 0 0 0 0 0 0 0 0 0 0 0 0 0 0 0 0 0 0 0 0 0 0 0 0 0 0 0 0 0 0 0
0 0 0 0 0 0 0 0 0 0 0 0 0 0 0 0 0 0 0 0 0 0 0 0 0 0 0 0 0 0 0 0 0 0 0 0 0 0 0 0 0 0 0
0 0 0 0 0 0 0 0 0 0 0 0 0 0 0 0 0 0 0 0 0 0 0 0 0 0 0 0 0 0 0 0 0 0 0 0 0 0 0 0 0 0 0
0 0 0 0 0 0 0 0 0 0 0 0 0 0 0 0 0 0 0 0 0 0 0 0 0 0 0 0 0 0 0 0 0 0 0 0 0 0 0 0 0 0 0
0 0 0 0 0 0 0 0 0 0 0 0 0 0 0 0 0 0 0 0 0 0 0 0 0 0 0 0 0 0 0 0 0 0 0 0 0 0 0 0 0 0 0
0 0 0 0 0 0 0 0 0 0 0 0 0 0 0 0 0 0 0 0 0 0 0 0 0 0 0 0 0 0 0 0 0 0 0 0 0 0 0 0 0 0 0
0 0 0 0 0 0 0 0 0 0 0 0 0 0 0 0 0 0 0 0 0 0 0 0 0 0 0 0 0 0 0 0 0 0 0 0 0 0 0 0 0 0 0
0 0 0 0 0 0 0 0 0 0 0 0 0 0 0 0 0 0 0 0 0 0 0 0 0 0 0 0 0 0 0 0 0 0 0 0 0 0 0 0 0 0 0
0 0 0 0 0 0 0 0 0 0 0 0 0 0 0 0 0 0 0 0 0 0 0 0 0 0 0 0 0 0 0 0 0 0 0 0 0 0 0 0 0 0 0
Wind_Speed
8 7 5 4 3 4 6 8 8 9 9 8 8 7 7 5 4 4 4 4 4 4 4 2 2 2 3 3 4 3 3 2 1 2 3 2 2 1 1 1 2 2 1
9 8 8 6 4 2 2 5 7 7 9 7 6 5 4 3 3 3 3 3 3 3 3 2 2 2 2 3 3 3 3 2 2 2 3 4 4 3 1 1 1 0 1
9 9 9 8 7 5 3 0 2 5 7 7 6 5 4 3 3 4 3 3 4 3 2 2 1 1 2 2 3 4 5 3 2 1 2 3 4 3 3 1 1 1 1
10 10 10 11 10 8 6 5 3 0 2 4 6 8 6 4 4 4 4 5 6 5 4 4 2 2 1 1 0 1 1 3 3 2 1 2 3 1 2 3 2 1 0
11 11 12 11 11 11 10 8 8 6 4 2 3 5 4 5 5 6 7 7 6 6 6 6 5 4 4 4 4 4 3 2 1 2 1 1 1 1 2 2 2 1 1
11 12 12 12 12 12 12 11 12 12 11 9 7 7 8 9 9 8 8 7 6 6 9 8 8 7 6 6 6 6 7 5 5 3 3 1 1 1 1 2 2 2 2
11 12 12 13 13 14 13 13 14 14 14 14 12 11 11 11 11 9 9 9 7 7 9 9 9 8 8 8 8 8 8 7 6 5 4 3 3 2 2 2 2 3 3
11 12 12 12 13 14 14 14 15 15 15 15 15 14 13 10 10 12 10 10 8 8 10 10 10 10 9 9 8 7 7 7 7 7 6 3 3 3 3 3 4 5 5
11 12 12 12 13 14 14 15 16 16 15 15 16 15 15 14 14 13 12 9 9 9 11 11 11 10 10 9 8 8 7 7 6 6 5 4 3 3 4 4 4 6 7
11 12 12 12 12 13 14 15 16 16 16 16 14 13 14 14 13 13 13 12 11 10 11 11 10 10 9 9 8 7 7 6 6 4 5 5 4 4 3 4 4 5 7
11 11 11 12 13 13 14 14 15 15 15 15 14 14 13 13 13 12 12 11 10 10 10 9 9 9 9 8 7 7 6 6 5 5 5 4 5 5 5 4 4 5 5
12 12 12 12 13 13 13 13 13 14 13 13 13 13 12 12 12 12 11 10 10 9 9 9 9 8 8 7 7 7 6 6 5 5 5 5 4 5 5 5 6 5 6
12 11 11 11 12 12 12 12 12 12 12 12 13 12 12 12 12 11 10 10 9 9 8 8 8 7 7 6 6 6 6 6 6 6 6 6 6 6 6 7 6 6 6
11 11 11 11 10 10 11 11 11 11 11 11 12 12 11 11 10 10 9 9 8 8 7 7 6 6 7 7 7 6 6 6 6 6 6 6 6 7 7 6 6 7 8
11 11 11 10 9 9 10 10 10 10 10 11 11 11 10 9 9 9 8 8 7 7 6 6 6 6 6 9 10 8 7 7 7 6 6 6 5 6 7 8 9 9 8
12 11 11 10 9 9 9 10 10 9 9 10 10 9 9 9 8 8 7 7 6 6 6 6 6 6 7 7 9 11 9 8 7 7 7 6 3 3 7 8 9 10 11
12 11 10 9 8 8 8 9 9 9 9 9 8 8 8 7 7 7 6 6 5 5 5 6 6 6 8 6 7 9 10 8 7 8 8 7 6 7 8 7 9 11 13
11 10 9 9 8 8 7 8 8 8 8 8 7 7 6 7 6 6 6 5 4 4 5 5 6 5 7 6 7 12 10 7 7 7 7 7 7 7 9 12 12 11 8
10 10 9 9 8 8 7 7 7 7 7 7 6 6 5 5 5 5 5 4 4 4 4 4 5 5 6 6 7 12 9 6 7 7 6 7 7 7 9 12 12 11 9
10 10 9 9 9 7 6 6 6 6 6 6 5 5 4 4 4 4 3 3 3 4 4 4 4 5 5 5 6 11 8 8 8 7 5 0 4 8 10 11 11 11 10
11 10 10 9 8 7 6 6 6 6 5 5 4 4 3 2 3 3 3 3 4 4 4 4 4 4 5 3 4 8 8 9 9 8 6 5 5 10 11 11 10 9 11
11 10 9 8 7 6 6 6 6 5 4 3 3 3 2 2 2 3 3 3 4 3 3 3 4 3 3 4 4 5 7 9 10 8 7 7 11 14 14 10 8 11 12
10 9 9 8 7 6 5 6 5 3 2 2 2 1 1 2 3 3 3 3 3 4 4 4 5 5 5 2 1 6 9 10 8 7 9 12 13 13 10 7 10 11 7
10 9 8 8 7 6 5 4 3 2 1 1 1 1 1 1 2 3 4 4 5 5 5 5 6 5 5 6 7 8 7 6 6 7 8 10 11 9 8 8 6 5 5
8 7 7 7 7 6 5 4 3 1 1 1 1 2 2 2 2 2 4 6 7 7 7 7 6 6 6 8 10 9 9 9 8 10 7 5 6 6 5 5 5 5 5
8 7 7 7 6 5 4 3 1 0 1 1 1 1 1 2 2 1 4 5 4 3 2 4 6 4 5 8 10 10 10 11 12 9 5 6 7 7 7 8 7 7 7
Wind_Direction
83 75 73 85 124 163 181 193 200 195 196 197 199 199 201 193 185 185 170 173 181 189 192 205 199 224 236 233 226 222 212 232 250 241 232 217 222 224 220 247 239 190 212
77 68 64 65 75 93 188 200 202 198 201 201 204 204 191 184 172 151 130 143 150 166 170 182 197 203 220 230 223 202 202 204 215 238 240 229 206 194 196 236 228 245 215
61 60 55 53 51 46 35 337 212 204 204 197 187 171 154 160 160 135 120 110 114 107 107 133 168 186 208 216 214 215 208 197 191 254 251 245 238 170 150 137 73 47 7
57 54 50 46 39 33 30 31 37 42 190 187 186 178 175 171 145 125 114 96 78 76 77 77 75 72 62 68 106 221 214 197 180 146 35 2 356 269 186 170 149 113 66
55 53 48 45 40 34 36 38 44 39 45 84 151 163 142 114 110 110 103 85 67 60 68 73 71 68 64 59 59 58 55 58 93 118 117 92 48 309 261 224 194 195 186
60 56 52 48 44 39 40 42 48 45 43 52 58 82 98 101 103 98 93 80 66 53 55 63 63 60 60 59 61 61 64 60 61 57 56 48 20 349 314 274 253 252 234
61 56 51 48 46 44 45 48 52 49 47 53 56 61 76 83 83 83 80 78 72 64 57 59 59 59 59 58 60 63 59 59 62 55 51 45 32 5 333 299 289 274 254
63 59 55 53 52 51 51 54 57 56 54 58 59 59 64 70 71 72 76 76 74 69 66 64 61 57 57 58 55 57 54 53 54 52 41 30 30 360 343 326 310 291 269
72 67 63 60 59 59 59 61 64 63 61 63 65 64 66 70 73 73 72 73 73 73 68 66 63 57 52 52 55 55 47 44 40 41 35 17 14 351 346 330 314 305 297
83 75 70 69 67 67 68 67 68 70 68 67 69 73 71 72 74 75 74 73 71 70 68 66 64 61 55 50 49 55 46 44 39 29 25 4 356 349 329 320 313 307 303
91 84 80 77 76 75 74 74 74 74 74 74 74 75 76 76 77 77 76 76 75 73 70 67 64 60 56 52 50 48 42 39 33 20 18 5 346 332 326 316 308 304 303
97 93 90 87 83 79 77 76 76 77 78 80 80 78 77 77 77 77 76 76 74 73 73 70 67 62 57 51 46 40 35 28 21 11 358 348 338 329 314 316 309 309 309
105 100 95 89 87 86 84 82 81 81 82 83 83 81 80 80 80 80 80 79 79 76 73 70 67 62 57 51 43 33 26 19 11 2 351 343 335 325 332 318 314 312 305
112 108 101 94 90 89 88 87 84 84 85 85 84 81 80 81 82 82 82 82 81 80 76 72 66 59 49 38 27 22 17 7 2 357 343 340 339 336 330 314 315 312 307
117 113 109 104 101 98 96 94 92 89 89 88 87 87 87 87 86 84 82 80 77 76 70 64 58 49 48 31 9 357 2 356 351 347 341 347 347 338 324 322 325 316 310
122 118 115 112 107 103 101 98 93 89 88 87 89 90 91 90 88 87 84 77 69 59 52 46 40 38 46 37 5 341 343 343 342 341 336 324 281 321 276 274 289 298 300
128 124 119 114 109 106 104 101 98 96 94 95 95 95 94 90 87 85 78 67 58 50 39 31 27 38 63 35 0 342 323 331 342 336 330 327 347 313 325 308 276 265 250
128 125 121 118 114 111 108 107 108 106 102 98 94 93 92 88 80 73 64 52 40 32 24 17 16 21 64 40 358 332 306 327 334 330 326 324 324 353 342 319 308 305 297
122 121 123 124 121 119 119 118 114 110 106 100 93 87 84 83 76 64 52 39 23 16 8 20 9 8 62 49 0 333 319 334 333 327 329 326 327 32 341 309 305 311 314
122 126 130 128 126 126 129 122 116 108 98 95 92 86 78 65 56 48 27 24 4 356 353 18 6 7 30 67 9 338 326 340 333 326 322 320 337 342 321 309 310 314 322
127 132 131 127 128 134 137 126 116 101 93 92 88 79 67 51 32 18 2 349 341 352 349 356 1 16 23 75 48 349 332 338 328 326 333 9 2 327 313 300 294 306 310
130 132 130 129 133 139 134 122 108 101 100 95 85 69 34 5 12 353 344 339 329 321 342 354 354 15 38 27 31 328 311 309 313 321 336 347 335 318 306 297 301 300 293
133 135 135 134 134 133 126 116 111 105 101 97 75 49 18 6 352 336 333 323 329 339 354 3 6 8 9 47 236 283 284 281 298 325 326 311 304 302 293 271 281 286 287
134 139 139 132 128 127 122 112 105 86 74 65 40 344 319 340 12 331 343 355 1 0 2 7 5 4 6 11 1 342 331 322 316 326 313 293 283 282 297 300 289 292 321
130 131 127 124 123 122 121 119 110 85 34 7 335 312 330 16 347 32 30 7 38 24 356 1 360 2 2 9 344 326 333 336 334 322 312 330 344 348 350 346 345 342 343
131 131 129 127 125 127 124 115 102 359 313 304 325 331 360 21 347 60 117 83 48 78 42 5 344 358 10 334 324 319 311 302 300 304 332 352 355 352 351 352 355 357 356